Regional Weather Roundup
Issued by NWS Charleston, SC

Current Version | Previous Version | Text Only | Print | Product List | Glossary Off
Versions: 1 2 3 4 5 6 7 8 9 10 11 12 13 14 15 16 17 18 19 20 21 22 23 24 25 26 27 28 29 30 31 32 33 34 35 36 37 38 39 40 41 42 43 44 45 46 47 48 49 50

000
ASUS42 KCHS 211125
RWRCHS

REGIONAL WEATHER ROUNDUP
NATIONAL WEATHER SERVICE CHARLESTON SC
700 AM EDT SUN SEP 21 2014

NOTE: "FAIR" INDICATES FEW OR NO CLOUDS BELOW 12,000 FEET WITH NO
SIGNIFICANT WEATHER AND/OR OBSTRUCTIONS TO VISIBILITY.

NOT ALL STATIONS ARE QUALITY CONTROLLED BY THE NATIONAL
WEATHER SERVICE. USE DATA WITH CAUTION...ESPECIALLY
DEWPOINT OBSERVATIONS.

SCZ027-030-031-034>040-042>050-211200-
...SOUTH CAROLINA...

CITY           SKY/WX    TMP DP  RH WIND       PRES   REMARKS
N CHARLESTON   PTCLDY    66  62  87 NW6       29.92R
WATERFRONT PRK   N/A     68 N/A N/A W6G12       N/A
FORT JOHNSON   NOT AVBL
MOUNT PLEASANT FAIR      68  64  88 NW7       29.91S
JOHNS ISLAND   SUNNY     64  64 100 W8        29.94R
PINOPOLIS        N/A     73  64  73 N13       29.84R
MONCKS CORNER    N/A     66  64  94 CALM      29.93R
SUMMERVILLE    NOT AVBL
BEAUFORT MCAS  PTCLDY    66  61  84 S5        29.95R
BEAUFORT ARPT  FAIR      66  63  88 NW6       29.95R
HILTON HEAD IS CLEAR     66  63  88 CALM      29.97R
GEORGETOWN     NOT AVBL
WALTERBORO     MOSUNNY   63 N/A N/A CALM      29.96R
ORANGEBURG     CLEAR     62  58  86 NW3       29.95R
BARNWELL       FAIR      61  61 100 CALM      29.97S
AIKEN          FAIR      59  59 100 W3        30.02R
MANNING        FAIR      63  63 100 NW3       29.93S
KINGSTREE      NOT AVBL
COLUMBIA       PTCLDY    62  59  90 CALM      29.95R
SUMTER         PTCLDY    63  59  87 NW9       29.93R
FLORENCE       PTCLDY    66  60  81 NW8       29.90R
MYRTLE BEACH   MOCLDY    70  64  83 NW12      29.86R
N MYRTLE BEACH CLOUDY    68  66  93 N7        29.84R

$$

GAZ063-065-086>088-099>101-113>116-118-119-134-136>141-150-211200-
...GEORGIA...

CITY           SKY/WX    TMP DP  RH WIND       PRES   REMARKS
SAVANNAH ARPT  PTCLDY    64  59  83 CALM      29.97R
HUNTER AAF     CLEAR     62  61  96 W5        29.95R
FORT STEWART   CLEAR     61  59  92 CALM      29.97R
STATESBORO     NOT AVBL
SYLVANIA       SUNNY     63  62  97 CALM      29.99R
CLAXTON        FAIR     N/A N/A N/A CALM      30.00R HAZE
THOMSON        CLEAR     59  59 100 CALM      30.05R
AUGUSTA-BUSH   CLEAR     58  57  97 CALM      29.97S
AUGUSTA-DANIEL CLEAR     66  61  84 N7        29.98S
SWAINSBORO     FAIR      61  61 100 CALM      30.01R
VIDALIA        CLEAR     61  61 100 CALM      30.01R
ALMA           CLEAR     63  60  90 NW5       30.00R
WAYCROSS       NOT AVBL
JESUP          FAIR      63  63 100 NW5       30.00R
BRUNSWICK      CLEAR     64  61  88 CALM      30.00R
SAINT SIMONS   CLEAR     66  62  87 NW7       29.98R

$$

SCZ027-028-034-036>038-045-046-048>050-GAZ119-141-211200-
...LAKE AND SUPPLEMENTAL COASTAL OBSERVATIONS...

STATION/POSITION TIME  TEMP    WIND        PRES    WAVE   SWELL
                       AIR SEA DIR/SP/G            HT/PER HT/PER/DIR
                 (UTC) (F)     (DEG/KT/KT) (MB)    (FT/S) (FT/S/D)
UPR LAKE MARION  NOT AVBL
WINYAH BAY       1100   68     300/  7     1011.0S
LAKE MURRAY      1000   65     310/  4/  6 1013.9S
ACE BASIN NERRS  1100   64     310/  1     1014.0S
FORT PULASKI     1100   66     300/  8/ 10 1014.9R
SAPELO ISLAND    1100   68     350/  5     1015.0S

$$

ANZ835-935-AMZ111-154-330-350-352-354-374-450-454-472-211200-
...C-MAN AND BUOY OBSERVATIONS...

STATION/POSITION TIME  TEMP    WIND        PRES    WAVE   SWELL
                       AIR SEA DIR/SP/G            HT/PER HT/PER/DIR
                 (UTC) (F)     (DEG/KT/KT) (MB)    (FT/S) (FT/S/D)
FOLLY BEACH CMAN 1100   67     300/  6/  9 1013.5R
BUOY 41004       1100   75 81  320/ 17/ 21 1011.0R   6/ 7   3/ 9
BUOY 41008       1100   76 83  350/ 14/ 17 1014.0R   4/ 9   2/ 90/ 9
5E ST. MARYS GA  1100      83                N/A     4/ 9
FRYING PAN BUOY  NOT AVBL
BUOY 41025       1100   73     320/ 12/ 16 1005.1F   8/ 8   7/ 90/ 8
CAPE LOOKOUT NC  1100   72     360/ 20/ 25 1006.3R
BUOY 41002       1004   79 82  210/ 23/ 27 1008.4R  11/ 7
BUOY 41010       1100   81 84  290/ 10/ 12 1013.4R   4/ 7   3/ 20/ 7
BUOY 41012       NOT AVBL
ST AUGUSTINE FL  1100   68     310/  6/  8 1015.3R
CAPERS NEARSHORE 1000   71     330/ 16/ 17   N/A
FRIPP NEARSHORE  NOT AVBL


$$



USA.gov is the U.S. government's official web portal to all federal, state and local government web resources and services.